{"data":{"norad_id":61710,"epoch":"2026-05-25T04:09:39.359808Z","epoch_age_seconds":57296,"freshness":"FRESH","line1":"1 61710U 24196D   26145.17337222  .00000318  00000+0  22871-4 0  9997","line2":"2 61710  53.1603 106.2927 0001231  82.3335 277.7805 15.30195783 88861","mean_motion":15.30195783,"eccentricity":0.0001231,"inclination_deg":53.1603,"raan_deg":106.2927,"arg_perigee_deg":82.3335,"mean_anomaly_deg":277.7805,"bstar":2.2871e-5,"rev_number":8886,"period_min":94.105605047273,"perigee_km":474.38401146039,"apogee_km":476.07130983985,"semimajor_km":6853.3646606501,"source":"CELESTRAK","updated_at":"2026-05-25T13:38:19.444189Z"}}